Regional Weather Roundup
Issued by NWS Cleveland, OH

Home | Current Version | Previous Version | Text Only | Print | Product List | Glossary Off
Versions: 1 2 3 4 5 6 7 8 9 10 11 12 13 14 15 16 17 18 19 20 21 22 23 24 25 26 27 28 29 30 31 32 33 34 35 36 37 38 39 40 41 42 43 44 45 46 47 48 49 50

000
ASUS41 KCLE 261502
RWRCLE
OHIO REGIONAL WEATHER ROUNDUP
NATIONAL WEATHER SERVICE CLEVELAND, OH
1000 AM EST SUN FEB 26 2017

NOTE: "FAIR" INDICATES FEW OR NO CLOUDS BELOW 12,000 FEET WITH NO
SIGNIFICANT WEATHER AND/OR OBSTRUCTIONS TO VISIBILITY.

OHZ001>008-015>018-024>027-034-035-043-044-261600-
   NORTHWEST OHIO

CITY           SKY/WX    TMP DP  RH WIND       PRES   REMARKS
DEFIANCE       SUNNY     28  17  63 SW12      30.13F WCI  18
FINDLAY        SUNNY     31  16  54 SW14      30.14R WCI  21
TOLEDO EXPRESS SUNNY     29  18  63 SW10      30.12S WCI  20
TOLEDO EXEC    SUNNY     31  18  58 SW15      30.15R WCI  20
LIMA           SUNNY     28  19  69 SW9       30.14F WCI  19
$$

OHZ009>014-019>023-028>033-038-089-261600-
   NORTHEAST OHIO

CITY           SKY/WX    TMP DP  RH WIND       PRES   REMARKS
CLE-HOPKINS    FLURRIES  29  17  61 SW12      30.18R WCI  19
CLE-LAKEFRONT  CLOUDY    28  19  69 SW15      30.16R WCI  16
CUY CO. ARPT   CLOUDY    28  18  64 W14       30.12R WCI  17
LORAIN-ELYRIA  CLOUDY    27  15  61 W10G21    30.16R WCI  17
ASHTABULA      CLOUDY    26  19  74 SW9       30.12R WCI  17
AKRON-CANTON   CLOUDY    28  13  53 W12       30.14R WCI  18
WOOSTER        CLOUDY    27  16  63 W12       30.16R WCI  17
MANSFIELD      MOSUNNY   28  16  60 SW13      30.14R WCI  17
YOUNGSTOWN     FLURRIES  26  15  63 W9        30.11R WCI  17
$$

OHZ042-051>053-060>062-070>072-077>081-261600-
  SOUTHWEST OHIO

CITY           SKY/WX    TMP DP  RH WIND       PRES   REMARKS
CINC-COVINGTON SUNNY     30  18  60 S8        30.22R WCI  22
CINC-LUNKEN    SUNNY     31  18  58 S6        30.25S WCI  25
HAMILTON       SUNNY     32  16  51 S5        30.24R WCI  27
DAYTON         SUNNY     29  16  58 S10       30.18S WCI  20
WRIGHT-PAT AFB SUNNY     29  17  60 S7        30.18F WCI  22
DAYTON GENERAL SUNNY     28  17  63 SW8       30.18F WCI  20
WILMINGTON     SUNNY     29  18  63 SW9       30.19S WCI  20
$$

OHZ036-037-039>041-045>050-054>059-063>069-073>076-082>088-261600-
  CENTRAL AND SOUTHEAST OHIO

CITY           SKY/WX    TMP DP  RH WIND       PRES   REMARKS
COLUMBUS       MOSUNNY   33  16  49 W6        30.19S WCI  28
OSU AIRPORT    SUNNY     31  17  56 VRB5      30.18S WCI  26
BOLTON FIELD   SUNNY     30  18  59 S3        30.19S
RICKENBACK AFB NOT AVBL
NEWARK         MOSUNNY   31  17  56 SW13      30.18R WCI  21
MARION         SUNNY     29  15  56 SW8       30.16F WCI  21
LANCASTER      SUNNY     33  17  51 W10       30.20R WCI  25
ZANESVILLE     CLOUDY    31  15  52 W10       30.18R WCI  22
NEW PHILLY     NOT AVBL
$$



USA.gov is the U.S. government's official web portal to all federal, state and local government web resources and services.